| time (UTC) | temp F | wind direction | speed MPH | gust MPH | rain 1hr in | rain 24hr in | rain mn in | humidity % | barometer mb |
| 20260507193045 | 60 | 58 | 2.0 | 5.0 | 0.01 | 0.01 | 0.01 | 82 | 1018.5 |
| 20260507192826 | 60 | 26 | 3.0 | 5.0 | 0.01 | 0.01 | 0.01 | 80 | 1019.2 |
| 20260507192541 | 60 | 214 | 0.0 | 3.0 | 0.00 | 0.00 | 0.00 | 80 | 1019.2 |
| 20260507192321 | 60 | 214 | 1.0 | 4.0 | 0.00 | 0.00 | 0.00 | 79 | 1019.9 |
| 20260507192016 | 60 | 214 | 1.0 | 4.0 | 0.00 | 0.00 | 0.00 | 79 | 1019.8 |
| 20260507191817 | 60 | 214 | 1.0 | 5.0 | 0.00 | 0.00 | 0.00 | 79 | 1020.5 |
| 20260507191558 | 60 | 214 | 1.0 | 7.0 | 0.00 | 0.00 | 0.00 | 79 | 1019.9 |
| 20260507191351 | 60 | 214 | 2.0 | 7.0 | 0.00 | 0.00 | 0.00 | 78 | 1020.4 |
| 20260507191033 | 60 | 214 | 2.0 | 7.0 | 0.00 | 0.00 | 0.00 | 78 | 1020.0 |
| 20260507190847 | 60 | 192 | 5.0 | 7.0 | 0.00 | 0.00 | 0.00 | 78 | 1020.6 |
| 20260507190604 | 60 | 203 | 2.0 | 9.0 | 0.00 | 0.00 | 0.00 | 77 | 1019.8 |
| 20260507190344 | 60 | 305 | 2.0 | 10.0 | 0.00 | 0.00 | 0.00 | 77 | 1020.1 |
| 20260507190035 | 60 | 359 | 3.0 | 10.0 | 0.00 | 0.00 | 0.00 | 77 | 1019.1 |
| 20260507185819 | 60 | 12 | 5.0 | 11.0 | 0.00 | 0.01 | 0.00 | 76 | 1019.7 |
| 20260507185525 | 60 | 349 | 6.0 | 11.0 | 0.00 | 0.01 | 0.00 | 76 | 1019.2 |
| 20260507185316 | 60 | 48 | 5.0 | 11.0 | 0.00 | 0.01 | 0.00 | 77 | 1019.7 |
| 20260507185018 | 60 | 25 | 5.0 | 11.0 | 0.00 | 0.01 | 0.00 | 77 | 1018.9 |
| 20260507184831 | 60 | 35 | 6.0 | 9.0 | 0.00 | 0.01 | 0.00 | 77 | 1019.4 |
| 20260507184511 | 59 | 8 | 4.0 | 10.0 | 0.00 | 0.01 | 0.00 | 77 | 1019.2 |
| 20260507184326 | 60 | 10 | 4.0 | 10.0 | 0.00 | 0.01 | 0.00 | 76 | 1019.8 |
| 20260507184057 | 59 | 41 | 4.0 | 10.0 | 0.00 | 0.01 | 0.00 | 77 | 1019.2 |
| 20260507183823 | 59 | 27 | 4.0 | 10.0 | 0.00 | 0.01 | 0.00 | 77 | 1019.9 |
| 20260507183551 | 59 | 33 | 5.0 | 10.0 | 0.00 | 0.01 | 0.00 | 76 | 1019.3 |
| 20260507183320 | 59 | 16 | 5.0 | 8.0 | 0.00 | 0.01 | 0.00 | 76 | 1020.0 |
| 20260507183041 | 59 | 31 | 2.0 | 9.0 | 0.00 | 0.01 | 0.00 | 77 | 1019.5 |
| 20260507182816 | 59 | 79 | 2.0 | 9.0 | 0.00 | 0.01 | 0.00 | 77 | 1020.0 |
| 20260507182533 | 59 | 58 | 4.0 | 9.0 | 0.00 | 0.01 | 0.00 | 77 | 1019.3 |
| 20260507182331 | 60 | 32 | 4.0 | 10.0 | 0.00 | 0.01 | 0.00 | 77 | 1019.9 |
| 20260507182015 | 59 | 60 | 4.0 | 10.0 | 0.00 | 0.01 | 0.00 | 77 | 1019.3 |
| 20260507181828 | 60 | 33 | 5.0 | 10.0 | 0.00 | 0.01 | 0.00 | 77 | 1019.8 |
| 20260507181507 | 59 | 77 | 5.0 | 9.0 | 0.00 | 0.01 | 0.00 | 77 | 1019.4 |
| 20260507181324 | 60 | 82 | 5.0 | 8.0 | 0.00 | 0.01 | 0.00 | 77 | 1020.4 |
| 20260507181102 | 59 | 81 | 2.0 | 7.0 | 0.00 | 0.01 | 0.00 | 76 | 1020.1 |
| 20260507180821 | 60 | 83 | 0.0 | 7.0 | 0.00 | 0.01 | 0.00 | 77 | 1020.7 |
| 20260507180559 | 59 | 48 | 3.0 | 11.0 | 0.00 | 0.01 | 0.00 | 77 | 1019.9 |
| 20260507180316 | 60 | 106 | 3.0 | 11.0 | 0.00 | 0.01 | 0.00 | 77 | 1020.5 |
| 20260507180048 | 59 | 48 | 3.0 | 11.0 | 0.00 | 0.01 | 0.00 | 76 | 1019.8 |
| 20260507175832 | 60 | 62 | 6.0 | 11.0 | 0.00 | 0.01 | 0.00 | 76 | 1020.3 |
| 20260507175535 | 59 | 53 | 6.0 | 13.0 | 0.00 | 0.01 | 0.00 | 76 | 1019.7 |
| 20260507175328 | 59 | 69 | 5.0 | 14.0 | 0.00 | 0.01 | 0.00 | 77 | 1020.2 |
| 20260507175029 | 59 | 22 | 6.0 | 14.0 | 0.00 | 0.01 | 0.00 | 77 | 1019.6 |
| 20260507174823 | 59 | 54 | 6.0 | 14.0 | 0.00 | 0.01 | 0.00 | 77 | 1020.1 |
| 20260507174523 | 59 | 49 | 7.0 | 14.0 | 0.00 | 0.01 | 0.00 | 77 | 1019.3 |
| 20260507174340 | 59 | 23 | 7.0 | 14.0 | 0.00 | 0.01 | 0.00 | 77 | 1020.0 |
| 20260507174047 | 59 | 73 | 5.0 | 14.0 | 0.00 | 0.01 | 0.00 | 78 | 1019.5 |
| 20260507173814 | 59 | 31 | 7.0 | 14.0 | 0.00 | 0.01 | 0.00 | 77 | 1020.0 |
| 20260507173541 | 58 | 100 | 4.0 | 12.0 | 0.00 | 0.01 | 0.00 | 78 | 1019.2 |
| 20260507173331 | 59 | 48 | 8.0 | 12.0 | 0.00 | 0.01 | 0.00 | 78 | 1019.6 |
| 20260507173035 | 58 | 22 | 7.0 | 13.0 | 0.00 | 0.01 | 0.00 | 78 | 1019.0 |
| 20260507172826 | 59 | 60 | 6.0 | 13.0 | 0.00 | 0.01 | 0.00 | 78 | 1019.6 |
| 20260507172525 | 58 | 35 | 5.0 | 13.0 | 0.00 | 0.01 | 0.00 | 79 | 1019.3 |
| 20260507172322 | 59 | 77 | 7.0 | 14.0 | 0.00 | 0.01 | 0.00 | 78 | 1019.8 |
| 20260507172016 | 58 | 70 | 4.0 | 14.0 | 0.00 | 0.01 | 0.00 | 79 | 1019.3 |
| 20260507171818 | 59 | 59 | 6.0 | 14.0 | 0.00 | 0.01 | 0.00 | 79 | 1019.9 |
| 20260507171607 | 58 | 65 | 7.0 | 12.0 | 0.00 | 0.01 | 0.00 | 79 | 1019.4 |
| 20260507171314 | 58 | 27 | 8.0 | 15.0 | 0.00 | 0.01 | 0.00 | 79 | 1020.0 |
| 20260507171053 | 58 | 40 | 4.0 | 15.0 | 0.00 | 0.01 | 0.00 | 80 | 1019.5 |
| 20260507170832 | 58 | 34 | 6.0 | 15.0 | 0.00 | 0.01 | 0.00 | 80 | 1020.1 |
| 20260507170547 | 58 | 28 | 8.0 | 15.0 | 0.00 | 0.01 | 0.00 | 80 | 1019.4 |
| 20260507170329 | 58 | 81 | 6.0 | 10.0 | 0.00 | 0.01 | 0.00 | 80 | 1019.8 |
| 20260507170040 | 57 | 52 | 4.0 | 10.0 | 0.00 | 0.01 | 0.00 | 81 | 1019.3 |
| 20260507165824 | 58 | 84 | 5.0 | 10.0 | 0.00 | 0.01 | 0.00 | 81 | 1019.9 |
| 20260507165534 | 57 | 85 | 5.0 | 11.0 | 0.00 | 0.01 | 0.00 | 80 | 1019.4 |
| 20260507165320 | 58 | 59 | 5.0 | 11.0 | 0.00 | 0.01 | 0.00 | 80 | 1020.3 |
| 20260507165025 | 57 | 90 | 5.0 | 11.0 | 0.00 | 0.01 | 0.00 | 81 | 1019.8 |
| 20260507164817 | 58 | 39 | 5.0 | 9.0 | 0.00 | 0.01 | 0.00 | 81 | 1020.3 |
| 20260507164512 | 57 | 46 | 4.0 | 9.0 | 0.00 | 0.01 | 0.00 | 81 | 1020.0 |
| 20260507164354 | 58 | 25 | 3.0 | 9.0 | 0.00 | 0.01 | 0.00 | 81 | 1020.7 |
| 20260507164043 | 57 | 68 | 4.0 | 9.0 | 0.00 | 0.01 | 0.00 | 80 | 1020.2 |
| 20260507163849 | 58 | 74 | 5.0 | 9.0 | 0.00 | 0.01 | 0.00 | 80 | 1020.6 |
| 20260507163507 | 57 | 65 | 4.0 | 8.0 | 0.00 | 0.01 | 0.00 | 81 | 1020.2 |
| 20260507163320 | 58 | 108 | 3.0 | 8.0 | 0.00 | 0.01 | 0.00 | 81 | 1020.7 |
| 20260507163041 | 57 | 93 | 3.0 | 8.0 | 0.00 | 0.01 | 0.00 | 80 | 1020.1 |
| 20260507162816 | 58 | 79 | 4.0 | 7.0 | 0.00 | 0.01 | 0.00 | 81 | 1020.8 |
| 20260507162534 | 57 | 69 | 2.0 | 7.0 | 0.00 | 0.01 | 0.00 | 81 | 1020.6 |
| 20260507162332 | 58 | 58 | 2.0 | 6.0 | 0.00 | 0.01 | 0.00 | 81 | 1021.3 |
| 20260507162023 | 57 | 38 | 2.0 | 9.0 | 0.00 | 0.01 | 0.00 | 81 | 1020.7 |
| 20260507161829 | 57 | 97 | 2.0 | 10.0 | 0.00 | 0.01 | 0.00 | 81 | 1021.0 |
| 20260507161511 | 57 | 44 | 3.0 | 10.0 | 0.00 | 0.01 | 0.00 | 81 | 1020.4 |
| 20260507161325 | 57 | 30 | 4.0 | 10.0 | 0.00 | 0.01 | 0.00 | 81 | 1020.6 |
| 20260507161005 | 57 | 79 | 5.0 | 9.0 | 0.00 | 0.01 | 0.00 | 81 | 1019.6 |
| 20260507160821 | 57 | 65 | 5.0 | 9.0 | 0.00 | 0.01 | 0.00 | 81 | 1020.4 |
| 20260507160602 | 57 | 84 | 2.0 | 6.0 | 0.00 | 0.01 | 0.00 | 82 | 1020.2 |
| 20260507160318 | 57 | 52 | 2.0 | 6.0 | 0.00 | 0.01 | 0.00 | 81 | 1020.9 |
| 20260507160107 | 57 | 48 | 3.0 | 6.0 | 0.00 | 0.01 | 0.00 | 81 | 1020.7 |
| 20260507155814 | 57 | 59 | 1.0 | 10.0 | 0.00 | 0.05 | 0.00 | 82 | 1021.2 |
| 20260507155549 | 57 | 63 | 4.0 | 10.0 | 0.00 | 0.05 | 0.00 | 82 | 1020.3 |
| 20260507155329 | 57 | 60 | 3.0 | 10.0 | 0.00 | 0.05 | 0.00 | 82 | 1020.5 |
| 20260507155013 | 57 | 57 | 5.0 | 11.0 | 0.00 | 0.05 | 0.00 | 81 | 1019.8 |
| 20260507154823 | 57 | 44 | 5.0 | 11.0 | 0.00 | 0.05 | 0.00 | 81 | 1020.5 |
| 20260507154503 | 57 | 29 | 5.0 | 11.0 | 0.00 | 0.05 | 0.00 | 81 | 1020.1 |
| 20260507154320 | 57 | 65 | 7.0 | 11.0 | 0.00 | 0.05 | 0.00 | 81 | 1020.6 |
| 20260507154056 | 57 | 32 | 6.0 | 12.0 | 0.00 | 0.05 | 0.00 | 81 | 1020.2 |
| 20260507153815 | 57 | 77 | 5.0 | 12.0 | 0.00 | 0.05 | 0.00 | 81 | 1020.8 |
| 20260507153549 | 57 | 27 | 4.0 | 12.0 | 0.00 | 0.05 | 0.00 | 82 | 1020.4 |
| 20260507153331 | 57 | 46 | 7.0 | 11.0 | 0.00 | 0.05 | 0.00 | 82 | 1020.9 |
| 20260507153027 | 57 | 35 | 4.0 | 11.0 | 0.00 | 0.05 | 0.00 | 83 | 1020.3 |
| 20260507152818 | 57 | 25 | 4.0 | 11.0 | 0.00 | 0.05 | 0.00 | 83 | 1021.0 |
| 20260507152503 | 57 | 34 | 5.0 | 11.0 | 0.00 | 0.05 | 0.00 | 83 | 1020.3 |
| 20260507152313 | 57 | 39 | 7.0 | 11.0 | 0.00 | 0.05 | 0.00 | 83 | 1020.9 |
| 20260507152057 | 57 | 9 | 5.0 | 10.0 | 0.00 | 0.05 | 0.00 | 83 | 1020.4 |
| 20260507151852 | 57 | 43 | 5.0 | 10.0 | 0.00 | 0.05 | 0.00 | 83 | 1021.0 |
| 20260507151531 | 57 | 12 | 4.0 | 10.0 | 0.00 | 0.05 | 0.00 | 83 | 1020.7 |
| 20260507151328 | 57 | 64 | 5.0 | 9.0 | 0.00 | 0.05 | 0.00 | 83 | 1021.3 |
| 20260507151027 | 57 | 27 | 4.0 | 11.0 | 0.00 | 0.05 | 0.00 | 83 | 1020.6 |
| 20260507150836 | 57 | 58 | 4.0 | 12.0 | 0.00 | 0.05 | 0.00 | 83 | 1020.9 |
| 20260507150544 | 57 | 67 | 6.0 | 12.0 | 0.00 | 0.05 | 0.00 | 83 | 1020.5 |
| 20260507150350 | 57 | 21 | 6.0 | 12.0 | 0.00 | 0.05 | 0.00 | 83 | 1021.1 |
| 20260507150012 | 57 | 55 | 4.0 | 11.0 | 0.00 | 0.09 | 0.00 | 83 | 1020.5 |
| 20260507145826 | 57 | 4 | 6.0 | 11.0 | 0.00 | 0.09 | 0.00 | 84 | 1021.0 |
| 20260507145600 | 57 | 23 | 6.0 | 12.0 | 0.00 | 0.09 | 0.00 | 83 | 1020.6 |
| 20260507145321 | 57 | 68 | 6.0 | 12.0 | 0.00 | 0.09 | 0.00 | 83 | 1021.2 |
| 20260507145053 | 57 | 67 | 5.0 | 12.0 | 0.00 | 0.09 | 0.00 | 84 | 1020.5 |
| 20260507144818 | 57 | 58 | 6.0 | 12.0 | 0.00 | 0.09 | 0.00 | 84 | 1021.0 |
| 20260507144547 | 57 | 56 | 7.0 | 11.0 | 0.00 | 0.09 | 0.00 | 84 | 1020.4 |
| 20260507144333 | 57 | 73 | 8.0 | 11.0 | 0.00 | 0.09 | 0.00 | 84 | 1021.1 |
| 20260507144040 | 57 | 65 | 5.0 | 10.0 | 0.00 | 0.09 | 0.00 | 84 | 1020.6 |
| 20260507143829 | 57 | 70 | 5.0 | 10.0 | 0.00 | 0.09 | 0.00 | 84 | 1021.1 |
| 20260507143528 | 57 | 43 | 4.0 | 12.0 | 0.00 | 0.09 | 0.00 | 85 | 1020.8 |
| 20260507143345 | 57 | 45 | 4.0 | 12.0 | 0.00 | 0.09 | 0.00 | 85 | 1021.0 |
| 20260507143053 | 57 | 58 | 7.0 | 12.0 | 0.00 | 0.09 | 0.00 | 85 | 1020.1 |
| 20260507142820 | 57 | 65 | 5.0 | 11.0 | 0.00 | 0.09 | 0.00 | 85 | 1020.6 |
| 20260507142546 | 57 | 17 | 6.0 | 14.0 | 0.00 | 0.09 | 0.00 | 85 | 1020.0 |
| 20260507142352 | 57 | 75 | 7.0 | 14.0 | 0.00 | 0.09 | 0.00 | 85 | 1020.5 |
| 20260507142009 | 57 | 12 | 5.0 | 14.0 | 0.00 | 0.09 | 0.00 | 85 | 1020.0 |
| 20260507141826 | 57 | 75 | 6.0 | 14.0 | 0.00 | 0.09 | 0.00 | 85 | 1020.6 |
| 20260507141501 | 57 | 15 | 8.0 | 14.0 | 0.00 | 0.09 | 0.00 | 86 | 1019.8 |
| 20260507141323 | 57 | 16 | 7.0 | 11.0 | 0.00 | 0.09 | 0.00 | 86 | 1020.3 |
| 20260507141053 | 57 | 348 | 4.0 | 11.0 | 0.00 | 0.09 | 0.00 | 86 | 1019.7 |
| 20260507140841 | 57 | 31 | 6.0 | 16.0 | 0.00 | 0.09 | 0.00 | 86 | 1020.2 |
| 20260507140527 | 56 | 73 | 6.0 | 18.0 | 0.00 | 0.09 | 0.00 | 86 | 1019.7 |
| 20260507140316 | 57 | 13 | 6.0 | 18.0 | 0.00 | 0.09 | 0.00 | 86 | 1020.3 |
| 20260507140022 | 56 | 18 | 9.0 | 18.0 | 0.00 | 0.09 | 0.00 | 86 | 1019.7 |
| 20260507135852 | 56 | 359 | 8.0 | 14.0 | 0.00 | 0.09 | 0.00 | 87 | 1020.2 |
| 20260507135543 | 56 | 10 | 7.0 | 17.0 | 0.00 | 0.09 | 0.00 | 87 | 1019.7 |
| 20260507135327 | 56 | 18 | 8.0 | 17.0 | 0.00 | 0.09 | 0.00 | 87 | 1020.3 |
| 20260507135036 | 55 | 4 | 8.0 | 17.0 | 0.00 | 0.09 | 0.00 | 87 | 1019.7 |
| 20260507134822 | 56 | 30 | 9.0 | 17.0 | 0.00 | 0.09 | 0.00 | 87 | 1020.3 |
| 20260507134530 | 55 | 46 | 6.0 | 15.0 | 0.00 | 0.09 | 0.00 | 87 | 1019.8 |
| 20260507134318 | 56 | 93 | 6.0 | 15.0 | 0.00 | 0.09 | 0.00 | 87 | 1020.3 |
| 20260507134023 | 55 | 34 | 7.0 | 17.0 | 0.00 | 0.09 | 0.00 | 87 | 1019.8 |
| 20260507133814 | 56 | 359 | 7.0 | 17.0 | 0.00 | 0.09 | 0.00 | 87 | 1020.3 |
| 20260507133518 | 55 | 35 | 8.0 | 17.0 | 0.00 | 0.09 | 0.00 | 87 | 1019.7 |
| 20260507133333 | 55 | 57 | 10.0 | 17.0 | 0.00 | 0.09 | 0.00 | 87 | 1020.1 |
| 20260507133003 | 55 | 10 | 7.0 | 15.0 | 0.00 | 0.09 | 0.00 | 88 | 1019.6 |
| 20260507132829 | 55 | 19 | 8.0 | 15.0 | 0.00 | 0.09 | 0.00 | 88 | 1020.2 |
| 20260507132554 | 55 | 41 | 8.0 | 15.0 | 0.00 | 0.09 | 0.00 | 88 | 1019.8 |
| 20260507132325 | 56 | 68 | 8.0 | 15.0 | 0.00 | 0.09 | 0.00 | 88 | 1020.5 |
| 20260507132050 | 55 | 18 | 4.0 | 13.0 | 0.00 | 0.09 | 0.00 | 88 | 1020.0 |
| 20260507131842 | 55 | 359 | 6.0 | 13.0 | 0.00 | 0.09 | 0.00 | 88 | 1020.4 |
| 20260507131530 | 55 | 28 | 6.0 | 15.0 | 0.00 | 0.09 | 0.00 | 88 | 1019.8 |
| 20260507131317 | 55 | 27 | 8.0 | 15.0 | 0.00 | 0.09 | 0.00 | 88 | 1020.4 |
| 20260507131016 | 55 | 4 | 7.0 | 15.0 | 0.00 | 0.09 | 0.00 | 88 | 1019.8 |
| 20260507130814 | 55 | 37 | 9.0 | 16.0 | 0.00 | 0.09 | 0.00 | 88 | 1020.5 |
| 20260507130559 | 55 | 37 | 6.0 | 16.0 | 0.00 | 0.09 | 0.00 | 88 | 1020.0 |
| 20260507130330 | 55 | 339 | 6.0 | 16.0 | 0.00 | 0.09 | 0.00 | 88 | 1020.5 |
| 20260507130053 | 55 | 75 | 7.0 | 16.0 | 0.00 | 0.09 | 0.00 | 88 | 1020.1 |
| 20260507125846 | 55 | 9 | 7.0 | 11.0 | 0.00 | 0.09 | 0.00 | 88 | 1020.7 |
| 20260507125525 | 55 | 25 | 5.0 | 11.0 | 0.00 | 0.09 | 0.00 | 88 | 1020.2 |
| 20260507125342 | 55 | 354 | 3.0 | 12.0 | 0.00 | 0.09 | 0.00 | 88 | 1021.0 |
| 20260507125051 | 55 | 15 | 5.0 | 12.0 | 0.00 | 0.09 | 0.00 | 88 | 1020.2 |
| 20260507124817 | 55 | 38 | 5.0 | 12.0 | 0.00 | 0.09 | 0.00 | 88 | 1020.7 |
| 20260507124538 | 54 | 53 | 4.0 | 12.0 | 0.00 | 0.09 | 0.00 | 88 | 1020.1 |
| 20260507124314 | 55 | 62 | 6.0 | 12.0 | 0.00 | 0.09 | 0.00 | 88 | 1020.6 |
| 20260507124029 | 55 | 48 | 6.0 | 12.0 | 0.00 | 0.09 | 0.00 | 88 | 1020.0 |
| 20260507123831 | 55 | 16 | 4.0 | 12.0 | 0.00 | 0.09 | 0.00 | 88 | 1020.8 |
| 20260507123516 | 55 | 84 | 5.0 | 12.0 | 0.00 | 0.09 | 0.00 | 88 | 1020.1 |
| 20260507123325 | 55 | 56 | 6.0 | 12.0 | 0.00 | 0.09 | 0.00 | 88 | 1020.6 |
| 20260507123006 | 55 | 42 | 4.0 | 9.0 | 0.00 | 0.09 | 0.00 | 88 | 1019.9 |
| 20260507122842 | 55 | 50 | 5.0 | 10.0 | 0.00 | 0.09 | 0.00 | 88 | 1020.4 |
| 20260507122538 | 55 | 44 | 3.0 | 10.0 | 0.00 | 0.09 | 0.00 | 88 | 1019.8 |
| 20260507122316 | 55 | 4 | 3.0 | 10.0 | 0.00 | 0.09 | 0.00 | 88 | 1020.3 |
| 20260507122030 | 55 | 359 | 5.0 | 10.0 | 0.00 | 0.09 | 0.00 | 88 | 1019.6 |
| 20260507121831 | 55 | 36 | 6.0 | 10.0 | 0.00 | 0.09 | 0.00 | 88 | 1020.3 |
| 20260507121526 | 55 | 28 | 4.0 | 11.0 | 0.00 | 0.09 | 0.00 | 88 | 1019.8 |
| 20260507121328 | 55 | 27 | 4.0 | 13.0 | 0.00 | 0.09 | 0.00 | 88 | 1020.4 |
| 20260507121007 | 55 | 25 | 3.0 | 13.0 | 0.00 | 0.09 | 0.00 | 88 | 1019.8 |
| 20260507120824 | 55 | 26 | 7.0 | 14.0 | 0.00 | 0.09 | 0.00 | 88 | 1020.4 |
| 20260507120603 | 55 | 34 | 6.0 | 14.0 | 0.00 | 0.09 | 0.00 | 88 | 1019.7 |
| 20260507120319 | 55 | 359 | 6.0 | 14.0 | 0.00 | 0.09 | 0.00 | 88 | 1020.2 |
| 20260507120055 | 55 | 25 | 5.0 | 12.0 | 0.00 | 0.10 | 0.00 | 88 | 1019.5 |
| 20260507115814 | 55 | 14 | 6.0 | 12.0 | 0.00 | 0.10 | 0.00 | 88 | 1020.2 |
| 20260507115547 | 55 | 39 | 7.0 | 12.0 | 0.00 | 0.10 | 0.00 | 88 | 1019.7 |
| 20260507115326 | 55 | 4 | 8.0 | 12.0 | 0.00 | 0.10 | 0.00 | 88 | 1020.3 |
| 20260507115036 | 55 | 359 | 7.0 | 11.0 | 0.00 | 0.10 | 0.00 | 88 | 1019.7 |
| 20260507114821 | 55 | 341 | 7.0 | 11.0 | 0.00 | 0.10 | 0.00 | 88 | 1020.3 |
| 20260507114526 | 55 | 34 | 5.0 | 11.0 | 0.00 | 0.10 | 0.00 | 88 | 1019.6 |
| 20260507114317 | 55 | 8 | 6.0 | 11.0 | 0.00 | 0.10 | 0.00 | 88 | 1020.1 |
| 20260507114010 | 55 | 83 | 7.0 | 11.0 | 0.00 | 0.10 | 0.00 | 88 | 1019.6 |
| 20260507113853 | 55 | 23 | 5.0 | 11.0 | 0.00 | 0.10 | 0.00 | 88 | 1020.3 |
| 20260507113542 | 55 | 25 | 5.0 | 9.0 | 0.00 | 0.10 | 0.00 | 88 | 1019.9 |
| 20260507113327 | 55 | 31 | 5.0 | 9.0 | 0.00 | 0.10 | 0.00 | 88 | 1020.4 |
| 20260507113005 | 55 | 359 | 4.0 | 9.0 | 0.00 | 0.10 | 0.00 | 88 | 1019.6 |
| 20260507112823 | 55 | 359 | 4.0 | 9.0 | 0.00 | 0.10 | 0.00 | 88 | 1020.3 |
| 20260507112558 | 55 | 48 | 4.0 | 14.0 | 0.00 | 0.10 | 0.00 | 88 | 1019.6 |
| 20260507112319 | 55 | 27 | 5.0 | 14.0 | 0.00 | 0.10 | 0.00 | 88 | 1020.3 |
| 20260507112048 | 55 | 24 | 5.0 | 14.0 | 0.00 | 0.10 | 0.00 | 88 | 1019.5 |
| 20260507111814 | 55 | 8 | 6.0 | 14.0 | 0.00 | 0.10 | 0.00 | 88 | 1020.1 |
| 20260507111544 | 55 | 8 | 6.0 | 12.0 | 0.00 | 0.10 | 0.00 | 88 | 1019.3 |
| 20260507111329 | 55 | 52 | 6.0 | 12.0 | 0.00 | 0.10 | 0.00 | 88 | 1019.9 |
| 20260507111004 | 55 | 62 | 5.0 | 13.0 | 0.00 | 0.10 | 0.00 | 88 | 1019.2 |
| 20260507110824 | 55 | 32 | 7.0 | 13.0 | 0.00 | 0.10 | 0.00 | 88 | 1019.8 |
| 20260507110600 | 55 | 8 | 7.0 | 13.0 | 0.00 | 0.10 | 0.00 | 88 | 1019.2 |
| 20260507110321 | 55 | 15 | 8.0 | 14.0 | 0.00 | 0.10 | 0.00 | 88 | 1019.7 |
| 20260507110057 | 55 | 16 | 7.0 | 15.0 | 0.00 | 0.10 | 0.00 | 87 | 1019.1 |
| 20260507105837 | 55 | 49 | 7.0 | 16.0 | 0.00 | 0.10 | 0.00 | 87 | 1019.8 |
| 20260507105524 | 55 | 359 | 8.0 | 16.0 | 0.00 | 0.10 | 0.00 | 87 | 1018.9 |
| 20260507105332 | 55 | 31 | 9.0 | 16.0 | 0.00 | 0.10 | 0.00 | 87 | 1019.5 |
| 20260507105016 | 55 | 43 | 6.0 | 14.0 | 0.00 | 0.10 | 0.00 | 87 | 1018.9 |
| 20260507104827 | 55 | 27 | 6.0 | 14.0 | 0.00 | 0.10 | 0.00 | 87 | 1019.7 |
| 20260507104507 | 55 | 27 | 6.0 | 15.0 | 0.00 | 0.10 | 0.00 | 87 | 1019.2 |
| 20260507104323 | 55 | 8 | 6.0 | 15.0 | 0.00 | 0.10 | 0.00 | 87 | 1019.8 |
| 20260507104059 | 55 | 30 | 9.0 | 15.0 | 0.00 | 0.10 | 0.00 | 87 | 1019.0 |
| 20260507103819 | 55 | 28 | 8.0 | 15.0 | 0.00 | 0.10 | 0.00 | 87 | 1019.6 |
| 20260507103554 | 55 | 18 | 5.0 | 12.0 | 0.00 | 0.10 | 0.00 | 87 | 1018.8 |
| 20260507103317 | 55 | 9 | 6.0 | 12.0 | 0.00 | 0.10 | 0.00 | 87 | 1019.5 |
| 20260507103043 | 55 | 35 | 6.0 | 16.0 | 0.00 | 0.10 | 0.00 | 87 | 1018.8 |
| 20260507102825 | 56 | 27 | 7.0 | 16.0 | 0.00 | 0.10 | 0.00 | 87 | 1019.5 |
| 20260507102534 | 55 | 27 | 9.0 | 16.0 | 0.00 | 0.10 | 0.00 | 87 | 1019.0 |
| 20260507102321 | 56 | 37 | 9.0 | 16.0 | 0.00 | 0.10 | 0.00 | 87 | 1019.6 |
| 20260507102027 | 55 | 31 | 7.0 | 15.0 | 0.00 | 0.10 | 0.00 | 87 | 1019.1 |
| 20260507101818 | 56 | 350 | 9.0 | 15.0 | 0.00 | 0.10 | 0.00 | 87 | 1019.8 |
| 20260507101511 | 55 | 34 | 3.0 | 11.0 | 0.00 | 0.10 | 0.00 | 88 | 1019.1 |
| 20260507101314 | 56 | 359 | 3.0 | 12.0 | 0.00 | 0.10 | 0.00 | 88 | 1019.9 |
| 20260507101005 | 55 | 16 | 2.0 | 13.0 | 0.00 | 0.10 | 0.00 | 88 | 1018.9 |
| 20260507100830 | 56 | 60 | 5.0 | 13.0 | 0.00 | 0.10 | 0.00 | 88 | 1019.4 |
| 20260507100602 | 55 | 359 | 7.0 | 13.0 | 0.00 | 0.10 | 0.00 | 88 | 1018.6 |
| 20260507100324 | 56 | 4 | 8.0 | 13.0 | 0.00 | 0.10 | 0.00 | 88 | 1019.2 |
| 20260507100034 | 55 | 359 | 7.0 | 12.0 | 0.00 | 0.10 | 0.00 | 88 | 1018.5 |
| 20260507095839 | 56 | 26 | 6.0 | 12.0 | 0.00 | 0.10 | 0.00 | 88 | 1019.2 |
| 20260507095558 | 55 | 16 | 4.0 | 10.0 | 0.00 | 0.10 | 0.00 | 88 | 1018.8 |
| 20260507095314 | 56 | 28 | 6.0 | 10.0 | 0.00 | 0.10 | 0.00 | 88 | 1019.7 |
| 20260507095048 | 55 | 359 | 4.0 | 12.0 | 0.00 | 0.10 | 0.00 | 88 | 1018.7 |
| 20260507094832 | 56 | 12 | 6.0 | 12.0 | 0.00 | 0.10 | 0.00 | 88 | 1019.3 |
| 20260507094546 | 55 | 14 | 5.0 | 13.0 | 0.00 | 0.10 | 0.00 | 88 | 1018.2 |
| 20260507094329 | 56 | 346 | 7.0 | 15.0 | 0.00 | 0.10 | 0.00 | 88 | 1019.0 |
| 20260507094031 | 55 | 19 | 6.0 | 15.0 | 0.00 | 0.10 | 0.00 | 88 | 1018.1 |
| 20260507093823 | 56 | 50 | 9.0 | 15.0 | 0.00 | 0.10 | 0.00 | 88 | 1018.9 |
| 20260507093525 | 56 | 44 | 5.0 | 12.0 | 0.00 | 0.10 | 0.00 | 89 | 1018.3 |
| 20260507093320 | 56 | 35 | 6.0 | 12.0 | 0.00 | 0.10 | 0.00 | 89 | 1019.1 |
| 20260507093025 | 56 | 25 | 7.0 | 12.0 | 0.00 | 0.10 | 0.00 | 89 | 1018.6 |
| 20260507092815 | 56 | 14 | 5.0 | 13.0 | 0.00 | 0.10 | 0.00 | 89 | 1019.4 |
| 20260507092502 | 56 | 4 | 6.0 | 13.0 | 0.00 | 0.10 | 0.00 | 89 | 1018.4 |
| 20260507092327 | 56 | 31 | 6.0 | 13.0 | 0.00 | 0.10 | 0.00 | 89 | 1019.1 |
| 20260507092054 | 56 | 34 | 8.0 | 12.0 | 0.00 | 0.10 | 0.00 | 89 | 1018.0 |
| 20260507091822 | 56 | 29 | 6.0 | 12.0 | 0.00 | 0.10 | 0.00 | 90 | 1018.7 |
| 20260507091600 | 56 | 19 | 5.0 | 9.0 | 0.00 | 0.10 | 0.00 | 89 | 1018.3 |
| 20260507091318 | 56 | 354 | 5.0 | 9.0 | 0.00 | 0.10 | 0.00 | 89 | 1019.2 |
| 20260507091040 | 56 | 15 | 4.0 | 8.0 | 0.00 | 0.10 | 0.00 | 89 | 1018.2 |
| 20260507090814 | 56 | 4 | 3.0 | 11.0 | 0.00 | 0.10 | 0.00 | 89 | 1019.1 |
| 20260507090534 | 56 | 23 | 3.0 | 11.0 | 0.00 | 0.10 | 0.00 | 89 | 1018.6 |
| 20260507090330 | 56 | 24 | 5.0 | 11.0 | 0.00 | 0.10 | 0.00 | 89 | 1019.1 |
| 20260507090028 | 56 | 46 | 5.0 | 10.0 | 0.00 | 0.10 | 0.00 | 89 | 1018.2 |
| 20260507085825 | 56 | 21 | 4.0 | 10.0 | 0.00 | 0.10 | 0.00 | 89 | 1019.5 |
| 20260507085510 | 56 | 27 | 2.0 | 10.0 | 0.00 | 0.10 | 0.00 | 89 | 1018.7 |
| 20260507085342 | 56 | 66 | 5.0 | 10.0 | 0.00 | 0.10 | 0.00 | 89 | 1019.0 |
| 20260507085042 | 56 | 345 | 3.0 | 11.0 | 0.00 | 0.10 | 0.00 | 89 | 1018.1 |
| 20260507084816 | 56 | 75 | 3.0 | 11.0 | 0.00 | 0.10 | 0.00 | 89 | 1018.8 |
| 20260507084536 | 56 | 333 | 6.0 | 11.0 | 0.00 | 0.10 | 0.00 | 89 | 1017.6 |
| 20260507084332 | 56 | 11 | 8.0 | 11.0 | 0.00 | 0.10 | 0.00 | 89 | 1018.2 |
| 20260507084030 | 56 | 21 | 4.0 | 10.0 | 0.00 | 0.10 | 0.00 | 89 | 1017.5 |
| 20260507083829 | 56 | 354 | 3.0 | 10.0 | 0.00 | 0.10 | 0.00 | 89 | 1018.4 |
| 20260507083510 | 56 | 33 | 4.0 | 11.0 | 0.00 | 0.10 | 0.00 | 89 | 1017.7 |
| 20260507083325 | 56 | 4 | 4.0 | 11.0 | 0.00 | 0.10 | 0.00 | 89 | 1018.5 |
| 20260507083002 | 56 | 20 | 6.0 | 11.0 | 0.00 | 0.10 | 0.00 | 89 | 1017.6 |
| 20260507082840 | 56 | 42 | 5.0 | 11.0 | 0.00 | 0.10 | 0.00 | 89 | 1018.4 |
| 20260507082552 | 56 | 32 | 3.0 | 10.0 | 0.00 | 0.10 | 0.00 | 89 | 1017.7 |
| 20260507082330 | 57 | 354 | 4.0 | 10.0 | 0.00 | 0.10 | 0.00 | 89 | 1018.4 |
| 20260507082046 | 56 | 48 | 3.0 | 9.0 | 0.00 | 0.10 | 0.00 | 89 | 1017.5 |
| 20260507081826 | 57 | 62 | 3.0 | 9.0 | 0.00 | 0.10 | 0.00 | 89 | 1018.3 |
| 20260507081550 | 56 | 48 | 3.0 | 7.0 | 0.00 | 0.10 | 0.00 | 89 | 1017.4 |
| 20260507081321 | 57 | 26 | 3.0 | 9.0 | 0.00 | 0.10 | 0.00 | 89 | 1018.4 |
| 20260507081030 | 56 | 68 | 4.0 | 11.0 | 0.00 | 0.10 | 0.00 | 89 | 1017.3 |
| 20260507080817 | 57 | 55 | 4.0 | 11.0 | 0.00 | 0.10 | 0.00 | 89 | 1018.2 |
| 20260507080517 | 56 | 73 | 4.0 | 11.0 | 0.00 | 0.10 | 0.00 | 89 | 1017.4 |
| 20260507080353 | 57 | 71 | 3.0 | 8.0 | 0.00 | 0.10 | 0.00 | 89 | 1018.2 |
| 20260507080048 | 56 | 48 | 3.0 | 7.0 | 0.00 | 0.10 | 0.00 | 89 | 1017.2 |
| 20260507075848 | 57 | 18 | 3.0 | 7.0 | 0.00 | 0.10 | 0.00 | 89 | 1018.1 |
| 20260507075512 | 56 | 46 | 4.0 | 9.0 | 0.00 | 0.10 | 0.00 | 89 | 1017.1 |
| 20260507075323 | 57 | 76 | 5.0 | 9.0 | 0.00 | 0.10 | 0.00 | 88 | 1017.9 |
| 20260507075009 | 56 | 52 | 5.0 | 11.0 | 0.00 | 0.10 | 0.00 | 88 | 1017.0 |
| 20260507074820 | 57 | 65 | 4.0 | 11.0 | 0.00 | 0.10 | 0.00 | 88 | 1017.7 |
| 20260507074600 | 56 | 91 | 6.0 | 11.0 | 0.00 | 0.10 | 0.00 | 88 | 1016.9 |
| 20260507074317 | 57 | 62 | 4.0 | 9.0 | 0.00 | 0.10 | 0.00 | 88 | 1017.8 |
| 20260507074051 | 56 | 52 | 2.0 | 6.0 | 0.00 | 0.10 | 0.00 | 88 | 1016.8 |
| 20260507073814 | 57 | 63 | 4.0 | 6.0 | 0.00 | 0.10 | 0.00 | 88 | 1017.5 |
| 20260507073542 | 56 | 64 | 4.0 | 10.0 | 0.00 | 0.10 | 0.00 | 88 | 1016.5 |
| 20260507073330 | 57 | 105 | 4.0 | 10.0 | 0.00 | 0.10 | 0.00 | 88 | 1017.4 |
| 20260507073044 | 56 | 45 | 2.0 | 10.0 | 0.00 | 0.10 | 0.00 | 88 | 1016.5 |
| 20260507072826 | 57 | 59 | 5.0 | 10.0 | 0.00 | 0.10 | 0.00 | 88 | 1017.3 |
| 20260507072526 | 56 | 50 | 3.0 | 9.0 | 0.00 | 0.10 | 0.00 | 88 | 1016.3 |
| 20260507072342 | 57 | 40 | 4.0 | 9.0 | 0.00 | 0.10 | 0.00 | 88 | 1017.3 |
| 20260507072050 | 56 | 49 | 3.0 | 13.0 | 0.00 | 0.10 | 0.00 | 88 | 1016.4 |
| 20260507071817 | 57 | 54 | 4.0 | 13.0 | 0.00 | 0.10 | 0.00 | 88 | 1017.2 |
| 20260507071544 | 56 | 29 | 3.0 | 13.0 | 0.00 | 0.10 | 0.00 | 88 | 1016.3 |
| 20260507071332 | 57 | 37 | 6.0 | 13.0 | 0.00 | 0.10 | 0.00 | 88 | 1017.0 |
| 20260507071008 | 56 | 41 | 4.0 | 9.0 | 0.00 | 0.10 | 0.00 | 88 | 1016.2 |
| 20260507070848 | 57 | 36 | 5.0 | 9.0 | 0.00 | 0.10 | 0.00 | 88 | 1017.0 |
| 20260507070542 | 56 | 31 | 3.0 | 9.0 | 0.00 | 0.10 | 0.00 | 88 | 1016.1 |
| 20260507070324 | 57 | 359 | 3.0 | 9.0 | 0.00 | 0.10 | 0.00 | 88 | 1017.0 |
| 20260507070041 | 56 | 45 | 4.0 | 9.0 | 0.00 | 0.10 | 0.00 | 88 | 1016.2 |
| 20260507065820 | 57 | 92 | 5.0 | 9.0 | 0.00 | 0.10 | 0.00 | 88 | 1017.2 |
| 20260507065521 | 56 | 47 | 4.0 | 9.0 | 0.00 | 0.10 | 0.00 | 88 | 1016.2 |
| 20260507065352 | 57 | 48 | 4.0 | 11.0 | 0.00 | 0.10 | 0.00 | 88 | 1017.1 |
| 20260507065054 | 56 | 39 | 3.0 | 11.0 | 0.00 | 0.10 | 0.00 | 88 | 1016.2 |
| 20260507064827 | 57 | 56 | 4.0 | 11.0 | 0.00 | 0.10 | 0.00 | 88 | 1017.0 |
| 20260507064528 | 56 | 50 | 4.0 | 11.0 | 0.00 | 0.10 | 0.00 | 88 | 1016.0 |
| 20260507064324 | 57 | 77 | 4.0 | 9.0 | 0.00 | 0.10 | 0.00 | 88 | 1016.9 |
| 20260507064024 | 56 | 69 | 5.0 | 9.0 | 0.00 | 0.10 | 0.00 | 88 | 1016.1 |
| 20260507063819 | 57 | 45 | 5.0 | 9.0 | 0.00 | 0.10 | 0.00 | 88 | 1017.0 |
| 20260507063518 | 56 | 39 | 3.0 | 9.0 | 0.00 | 0.10 | 0.00 | 87 | 1016.2 |
| 20260507063315 | 57 | 64 | 4.0 | 9.0 | 0.00 | 0.10 | 0.00 | 87 | 1017.1 |
| 20260507063104 | 56 | 54 | 4.0 | 9.0 | 0.00 | 0.10 | 0.00 | 87 | 1016.1 |
| 20260507062852 | 57 | 45 | 4.0 | 9.0 | 0.00 | 0.10 | 0.00 | 88 | 1017.1 |
| 20260507062536 | 57 | 51 | 4.0 | 8.0 | 0.00 | 0.10 | 0.00 | 87 | 1016.3 |
| 20260507062329 | 57 | 63 | 4.0 | 8.0 | 0.00 | 0.10 | 0.00 | 87 | 1017.3 |
| 20260507062030 | 57 | 57 | 3.0 | 8.0 | 0.00 | 0.10 | 0.00 | 87 | 1016.3 |
| 20260507061825 | 57 | 48 | 3.0 | 7.0 | 0.00 | 0.10 | 0.00 | 87 | 1017.2 |
| 20260507061530 | 57 | 37 | 3.0 | 7.0 | 0.00 | 0.10 | 0.00 | 87 | 1016.2 |
| 20260507061321 | 57 | 35 | 4.0 | 9.0 | 0.00 | 0.10 | 0.00 | 87 | 1017.2 |
| 20260507061008 | 57 | 39 | 4.0 | 9.0 | 0.00 | 0.10 | 0.00 | 87 | 1016.3 |
| 20260507060818 | 57 | 48 | 4.0 | 9.0 | 0.00 | 0.10 | 0.00 | 87 | 1017.2 |
| 20260507060602 | 57 | 23 | 3.0 | 9.0 | 0.00 | 0.10 | 0.00 | 87 | 1016.3 |
| 20260507060313 | 57 | 24 | 5.0 | 9.0 | 0.00 | 0.10 | 0.00 | 87 | 1017.2 |
| 20260507060058 | 57 | 64 | 2.0 | 8.0 | 0.00 | 0.10 | 0.00 | 87 | 1016.3 |
| 20260507055837 | 57 | 18 | 3.0 | 8.0 | 0.00 | 0.10 | 0.00 | 87 | 1017.3 |
| 20260507055600 | 57 | 70 | 3.0 | 9.0 | 0.00 | 0.10 | 0.00 | 87 | 1016.4 |
| 20260507055332 | 58 | 62 | 4.0 | 9.0 | 0.00 | 0.10 | 0.00 | 87 | 1017.3 |
| 20260507055034 | 57 | 58 | 3.0 | 9.0 | 0.00 | 0.10 | 0.00 | 87 | 1016.4 |
| 20260507054828 | 58 | 359 | 5.0 | 9.0 | 0.00 | 0.10 | 0.00 | 87 | 1017.4 |
| 20260507054526 | 57 | 53 | 4.0 | 8.0 | 0.00 | 0.10 | 0.00 | 86 | 1016.4 |
| 20260507054325 | 58 | 62 | 3.0 | 8.0 | 0.00 | 0.10 | 0.00 | 86 | 1017.4 |
| 20260507054021 | 57 | 55 | 4.0 | 7.0 | 0.00 | 0.10 | 0.00 | 86 | 1016.5 |
| 20260507053822 | 58 | 76 | 4.0 | 8.0 | 0.00 | 0.10 | 0.00 | 86 | 1017.5 |
| 20260507053504 | 57 | 56 | 4.0 | 9.0 | 0.00 | 0.10 | 0.00 | 86 | 1016.6 |
| 20260507053319 | 58 | 62 | 3.0 | 9.0 | 0.00 | 0.10 | 0.00 | 86 | 1017.6 |
| 20260507053058 | 57 | 58 | 4.0 | 9.0 | 0.00 | 0.10 | 0.00 | 86 | 1016.7 |
| 20260507052815 | 58 | 87 | 4.0 | 9.0 | 0.00 | 0.10 | 0.00 | 86 | 1017.6 |
| 20260507052551 | 57 | 50 | 3.0 | 9.0 | 0.00 | 0.10 | 0.00 | 86 | 1016.4 |
| 20260507052352 | 58 | 52 | 4.0 | 9.0 | 0.00 | 0.10 | 0.00 | 86 | 1017.4 |
| 20260507052024 | 58 | 60 | 4.0 | 9.0 | 0.00 | 0.10 | 0.00 | 86 | 1016.5 |
| 20260507051826 | 58 | 57 | 5.0 | 9.0 | 0.00 | 0.10 | 0.00 | 86 | 1017.6 |
| 20260507051504 | 58 | 60 | 4.0 | 9.0 | 0.00 | 0.10 | 0.00 | 86 | 1016.6 |
| 20260507051342 | 58 | 66 | 4.0 | 9.0 | 0.00 | 0.10 | 0.00 | 86 | 1017.6 |
| 20260507051035 | 58 | 44 | 4.0 | 9.0 | 0.00 | 0.10 | 0.00 | 86 | 1016.5 |
| 20260507050817 | 58 | 43 | 4.0 | 9.0 | 0.00 | 0.10 | 0.00 | 86 | 1017.6 |
| 20260507050531 | 58 | 50 | 6.0 | 10.0 | 0.00 | 0.10 | 0.00 | 86 | 1016.6 |
| 20260507050332 | 58 | 46 | 5.0 | 10.0 | 0.00 | 0.10 | 0.00 | 86 | 1017.6 |
| 20260507050119 | 58 | 57 | 5.0 | 10.0 | 0.00 | 0.10 | 0.00 | 86 | 1016.6 |
| 20260507045819 | 58 | 25 | 6.0 | 10.0 | 0.00 | 0.10 | 0.10 | 86 | 1017.6 |
| 20260507045550 | 58 | 60 | 3.0 | 10.0 | 0.00 | 0.10 | 0.10 | 86 | 1016.6 |
| 20260507045314 | 58 | 35 | 3.0 | 10.0 | 0.00 | 0.10 | 0.10 | 86 | 1017.6 |
| 20260507045042 | 58 | 82 | 5.0 | 10.0 | 0.00 | 0.10 | 0.10 | 86 | 1016.5 |
| 20260507044845 | 58 | 62 | 4.0 | 10.0 | 0.00 | 0.10 | 0.10 | 86 | 1017.4 |
| 20260507044515 | 58 | 57 | 5.0 | 10.0 | 0.00 | 0.10 | 0.10 | 86 | 1016.3 |
| 20260507044341 | 58 | 25 | 4.0 | 8.0 | 0.00 | 0.10 | 0.10 | 86 | 1017.4 |
| 20260507044054 | 58 | 38 | 4.0 | 7.0 | 0.00 | 0.10 | 0.10 | 86 | 1016.2 |
| 20260507043830 | 58 | 54 | 3.0 | 9.0 | 0.00 | 0.10 | 0.10 | 86 | 1017.3 |
| 20260507043548 | 58 | 78 | 4.0 | 9.0 | 0.00 | 0.10 | 0.10 | 85 | 1016.2 |
| 20260507043324 | 59 | 32 | 3.0 | 9.0 | 0.00 | 0.10 | 0.10 | 85 | 1017.2 |
| 20260507043023 | 58 | 44 | 3.0 | 7.0 | 0.00 | 0.10 | 0.10 | 86 | 1016.2 |
| 20260507042821 | 59 | 19 | 3.0 | 7.0 | 0.00 | 0.10 | 0.10 | 86 | 1017.2 |
| 20260507042507 | 58 | 43 | 3.0 | 9.0 | 0.00 | 0.10 | 0.10 | 85 | 1016.2 |
| 20260507042339 | 59 | 36 | 4.0 | 9.0 | 0.00 | 0.10 | 0.10 | 85 | 1017.3 |
| 20260507042038 | 58 | 64 | 4.0 | 9.0 | 0.00 | 0.10 | 0.10 | 85 | 1016.2 |
| 20260507041815 | 59 | 70 | 4.0 | 9.0 | 0.00 | 0.10 | 0.10 | 85 | 1017.3 |
| 20260507041528 | 58 | 60 | 3.0 | 7.0 | 0.00 | 0.10 | 0.10 | 85 | 1016.1 |
| 20260507041331 | 59 | 66 | 3.0 | 9.0 | 0.00 | 0.10 | 0.10 | 85 | 1017.1 |
| 20260507041013 | 58 | 56 | 2.0 | 9.0 | 0.00 | 0.10 | 0.10 | 85 | 1016.0 |
| 20260507040826 | 59 | 54 | 4.0 | 11.0 | 0.00 | 0.10 | 0.10 | 85 | 1017.0 |
| 20260507040507 | 58 | 58 | 3.0 | 12.0 | 0.00 | 0.10 | 0.10 | 85 | 1015.8 |
| 20260507040325 | 59 | 51 | 4.0 | 12.0 | 0.00 | 0.10 | 0.10 | 85 | 1016.9 |
| 20260507040058 | 59 | 62 | 6.0 | 12.0 | 0.00 | 0.10 | 0.10 | 85 | 1015.6 |
| 20260507035821 | 59 | 61 | 5.0 | 12.0 | 0.00 | 0.10 | 0.10 | 85 | 1016.7 |
| 20260507035548 | 59 | 49 | 4.0 | 10.0 | 0.00 | 0.10 | 0.10 | 85 | 1015.5 |
| 20260507035316 | 59 | 54 | 6.0 | 10.0 | 0.00 | 0.10 | 0.10 | 85 | 1016.6 |
| 20260507035042 | 59 | 48 | 4.0 | 10.0 | 0.00 | 0.10 | 0.10 | 85 | 1015.5 |
| 20260507034851 | 59 | 58 | 5.0 | 10.0 | 0.00 | 0.10 | 0.10 | 85 | 1016.6 |
| 20260507034508 | 59 | 61 | 3.0 | 9.0 | 0.00 | 0.10 | 0.10 | 85 | 1015.7 |
| 20260507034347 | 59 | 67 | 4.0 | 9.0 | 0.00 | 0.10 | 0.10 | 85 | 1016.8 |
| 20260507034038 | 59 | 48 | 4.0 | 9.0 | 0.00 | 0.10 | 0.10 | 85 | 1015.7 |
| 20260507033823 | 59 | 50 | 5.0 | 10.0 | 0.00 | 0.10 | 0.10 | 85 | 1016.9 |
| 20260507033530 | 59 | 70 | 4.0 | 10.0 | 0.00 | 0.10 | 0.10 | 85 | 1015.8 |
| 20260507033320 | 60 | 52 | 4.0 | 10.0 | 0.00 | 0.10 | 0.10 | 85 | 1017.0 |
| 20260507033024 | 59 | 60 | 4.0 | 9.0 | 0.00 | 0.10 | 0.10 | 85 | 1015.8 |
| 20260507032815 | 60 | 80 | 5.0 | 9.0 | 0.00 | 0.10 | 0.10 | 84 | 1016.9 |
| 20260507032510 | 59 | 51 | 3.0 | 10.0 | 0.00 | 0.10 | 0.10 | 84 | 1015.8 |
| 20260507032331 | 60 | 61 | 4.0 | 10.0 | 0.00 | 0.10 | 0.10 | 84 | 1017.0 |
| 20260507032006 | 59 | 18 | 4.0 | 10.0 | 0.00 | 0.10 | 0.10 | 84 | 1015.7 |
| 20260507031827 | 60 | 49 | 6.0 | 10.0 | 0.00 | 0.10 | 0.10 | 84 | 1016.8 |
| 20260507031554 | 59 | 25 | 4.0 | 9.0 | 0.00 | 0.10 | 0.10 | 84 | 1015.6 |
| 20260507031322 | 60 | 39 | 4.0 | 8.0 | 0.00 | 0.10 | 0.10 | 84 | 1016.7 |
| 20260507031048 | 60 | 33 | 4.0 | 8.0 | 0.00 | 0.10 | 0.10 | 84 | 1015.7 |
| 20260507030816 | 60 | 45 | 4.0 | 8.0 | 0.00 | 0.10 | 0.10 | 84 | 1016.8 |
| 20260507030539 | 60 | 8 | 3.0 | 10.0 | 0.00 | 0.10 | 0.10 | 84 | 1015.6 |
| 20260507030352 | 60 | 29 | 4.0 | 10.0 | 0.00 | 0.10 | 0.10 | 84 | 1017.0 |
| 20260507030005 | 60 | 23 | 4.0 | 10.0 | 0.00 | 0.10 | 0.10 | 84 | 1015.8 |
| 20260507025846 | 61 | 18 | 5.0 | 10.0 | 0.00 | 0.10 | 0.10 | 84 | 1016.9 |
| 20260507025538 | 60 | 18 | 3.0 | 9.0 | 0.00 | 0.10 | 0.10 | 84 | 1015.9 |
| 20260507025321 | 61 | 4 | 4.0 | 9.0 | 0.00 | 0.10 | 0.10 | 84 | 1017.1 |
| 20260507025030 | 60 | 23 | 3.0 | 9.0 | 0.00 | 0.10 | 0.10 | 84 | 1015.9 |
| 20260507024816 | 61 | 12 | 4.0 | 9.0 | 0.00 | 0.10 | 0.10 | 84 | 1017.1 |
| 20260507024512 | 60 | 359 | 4.0 | 9.0 | 0.00 | 0.10 | 0.10 | 84 | 1015.9 |
| 20260507024350 | 61 | 354 | 4.0 | 9.0 | 0.00 | 0.10 | 0.10 | 84 | 1017.2 |
| 20260507024049 | 60 | 359 | 4.0 | 9.0 | 0.00 | 0.10 | 0.10 | 84 | 1015.8 |
| 20260507023845 | 61 | 359 | 3.0 | 9.0 | 0.00 | 0.10 | 0.10 | 84 | 1017.0 |
| 20260507023527 | 60 | 354 | 4.0 | 9.0 | 0.00 | 0.10 | 0.10 | 84 | 1015.8 |
| 20260507023341 | 61 | 16 | 3.0 | 9.0 | 0.00 | 0.10 | 0.10 | 85 | 1016.9 |
| 20260507023044 | 60 | 32 | 2.0 | 9.0 | 0.00 | 0.10 | 0.10 | 85 | 1015.8 |
| 20260507022815 | 61 | 14 | 4.0 | 9.0 | 0.00 | 0.10 | 0.10 | 85 | 1016.9 |
| 20260507022538 | 60 | 26 | 1.0 | 5.0 | 0.00 | 0.10 | 0.10 | 85 | 1015.7 |
| 20260507022332 | 61 | 10 | 3.0 | 5.0 | 0.00 | 0.10 | 0.10 | 85 | 1016.9 |
| 20260507022031 | 60 | 31 | 1.0 | 5.0 | 0.00 | 0.10 | 0.10 | 85 | 1015.8 |
| 20260507021828 | 61 | 346 | 2.0 | 6.0 | 0.00 | 0.10 | 0.10 | 85 | 1016.9 |
| 20260507021514 | 60 | 359 | 2.0 | 6.0 | 0.00 | 0.10 | 0.10 | 85 | 1015.6 |
| 20260507021325 | 61 | 21 | 3.0 | 6.0 | 0.00 | 0.10 | 0.10 | 85 | 1016.7 |
| 20260507021010 | 60 | 10 | 3.0 | 6.0 | 0.00 | 0.10 | 0.10 | 85 | 1015.4 |
| 20260507020821 | 61 | 16 | 3.0 | 6.0 | 0.00 | 0.10 | 0.10 | 85 | 1016.6 |
| 20260507020600 | 60 | 15 | 2.0 | 8.0 | 0.00 | 0.10 | 0.10 | 85 | 1015.4 |
| 20260507020317 | 61 | 35 | 2.0 | 8.0 | 0.00 | 0.10 | 0.10 | 85 | 1016.6 |
| 20260507020106 | 60 | 16 | 3.0 | 8.0 | 0.00 | 0.10 | 0.10 | 85 | 1015.3 |
| 20260507015833 | 61 | 359 | 4.0 | 8.0 | 0.00 | 0.10 | 0.10 | 85 | 1016.5 |
| 20260507015550 | 60 | 11 | 2.0 | 8.0 | 0.00 | 0.10 | 0.10 | 85 | 1015.1 |
| 20260507015330 | 61 | 22 | 4.0 | 8.0 | 0.00 | 0.10 | 0.10 | 85 | 1016.3 |
| 20260507015044 | 60 | 39 | 2.0 | 6.0 | 0.00 | 0.10 | 0.10 | 85 | 1015.1 |
| 20260507014827 | 61 | 359 | 3.0 | 6.0 | 0.00 | 0.10 | 0.10 | 85 | 1016.5 |
| 20260507014539 | 60 | 28 | 2.0 | 6.0 | 0.00 | 0.10 | 0.10 | 85 | 1015.2 |
| 20260507014323 | 61 | 10 | 3.0 | 6.0 | 0.00 | 0.10 | 0.10 | 85 | 1016.5 |
| 20260507014026 | 60 | 359 | 3.0 | 6.0 | 0.00 | 0.10 | 0.10 | 85 | 1015.1 |
| 20260507013820 | 61 | 19 | 3.0 | 6.0 | 0.00 | 0.10 | 0.10 | 85 | 1016.4 |
| 20260507013520 | 60 | 53 | 1.0 | 6.0 | 0.00 | 0.10 | 0.10 | 85 | 1014.8 |
| 20260507013317 | 61 | 53 | 2.0 | 6.0 | 0.00 | 0.10 | 0.10 | 85 | 1016.1 |
| 20260507013013 | 60 | 35 | 1.0 | 6.0 | 0.00 | 0.10 | 0.10 | 84 | 1014.7 |
| 20260507012832 | 61 | 27 | 1.0 | 6.0 | 0.00 | 0.10 | 0.10 | 84 | 1016.0 |
| 20260507012607 | 60 | 39 | 3.0 | 6.0 | 0.00 | 0.10 | 0.10 | 84 | 1014.8 |
| 20260507012328 | 61 | 25 | 3.0 | 6.0 | 0.00 | 0.10 | 0.10 | 84 | 1016.1 |
| 20260507012054 | 60 | 41 | 2.0 | 6.0 | 0.00 | 0.10 | 0.10 | 84 | 1014.6 |
| 20260507011844 | 61 | 34 | 2.0 | 6.0 | 0.00 | 0.10 | 0.10 | 84 | 1016.1 |
| 20260507011532 | 60 | 33 | 3.0 | 5.0 | 0.00 | 0.10 | 0.10 | 84 | 1014.7 |
| 20260507011320 | 61 | 73 | 3.0 | 5.0 | 0.00 | 0.10 | 0.10 | 84 | 1016.0 |
| 20260507011021 | 60 | 41 | 1.0 | 8.0 | 0.00 | 0.10 | 0.10 | 84 | 1014.5 |
| 20260507010816 | 61 | 51 | 3.0 | 8.0 | 0.00 | 0.10 | 0.10 | 84 | 1015.7 |
| 20260507010518 | 60 | 4 | 3.0 | 8.0 | 0.00 | 0.10 | 0.10 | 84 | 1014.1 |
| 20260507010332 | 61 | 33 | 4.0 | 7.0 | 0.00 | 0.10 | 0.10 | 84 | 1015.3 |
| 20260507010111 | 60 | 18 | 3.0 | 7.0 | 0.00 | 0.10 | 0.10 | 84 | 1013.7 |
| 20260507005829 | 61 | 8 | 5.0 | 8.0 | 0.00 | 0.10 | 0.10 | 84 | 1015.1 |
| 20260507005552 | 61 | 9 | 3.0 | 7.0 | 0.00 | 0.10 | 0.10 | 84 | 1013.8 |
| 20260507005324 | 61 | 34 | 3.0 | 7.0 | 0.00 | 0.10 | 0.10 | 84 | 1015.1 |
| 20260507005046 | 61 | 24 | 3.0 | 7.0 | 0.00 | 0.10 | 0.10 | 84 | 1013.6 |
| 20260507004821 | 61 | 32 | 2.0 | 7.0 | 0.00 | 0.10 | 0.10 | 84 | 1015.1 |
| 20260507004541 | 61 | 41 | 2.0 | 7.0 | 0.00 | 0.10 | 0.10 | 84 | 1013.6 |
| 20260507004318 | 61 | 28 | 3.0 | 10.0 | 0.00 | 0.10 | 0.10 | 84 | 1015.1 |
| 20260507004030 | 61 | 27 | 3.0 | 10.0 | 0.00 | 0.10 | 0.10 | 84 | 1013.5 |
| 20260507003815 | 61 | 50 | 5.0 | 10.0 | 0.00 | 0.10 | 0.10 | 83 | 1015.0 |
| 20260507003516 | 61 | 359 | 2.0 | 8.0 | 0.00 | 0.10 | 0.10 | 84 | 1013.5 |
| 20260507003331 | 61 | 20 | 4.0 | 8.0 | 0.00 | 0.10 | 0.10 | 84 | 1014.9 |
| 20260507003012 | 61 | 4 | 3.0 | 6.0 | 0.00 | 0.10 | 0.10 | 84 | 1013.5 |
| 20260507002828 | 61 | 19 | 3.0 | 8.0 | 0.00 | 0.10 | 0.10 | 84 | 1014.8 |
| 20260507002504 | 61 | 14 | 2.0 | 8.0 | 0.00 | 0.10 | 0.10 | 84 | 1013.4 |
| 20260507002324 | 62 | 25 | 3.0 | 8.0 | 0.00 | 0.10 | 0.10 | 84 | 1014.7 |
| 20260507002101 | 61 | 43 | 3.0 | 8.0 | 0.00 | 0.10 | 0.10 | 84 | 1013.3 |
| 20260507001820 | 62 | 19 | 3.0 | 8.0 | 0.00 | 0.10 | 0.10 | 84 | 1014.8 |
| 20260507001558 | 61 | 36 | 3.0 | 8.0 | 0.00 | 0.10 | 0.10 | 84 | 1013.4 |
| 20260507001317 | 62 | 27 | 4.0 | 8.0 | 0.00 | 0.10 | 0.10 | 84 | 1014.8 |
| 20260507001046 | 61 | 4 | 3.0 | 8.0 | 0.00 | 0.10 | 0.10 | 84 | 1013.3 |
| 20260507000832 | 61 | 9 | 4.0 | 8.0 | 0.00 | 0.10 | 0.10 | 84 | 1014.8 |
| 20260507000536 | 61 | 15 | 4.0 | 10.0 | 0.00 | 0.10 | 0.10 | 84 | 1013.4 |
| 20260507000328 | 62 | 17 | 4.0 | 10.0 | 0.00 | 0.10 | 0.10 | 84 | 1014.7 |
| 20260507000030 | 61 | 11 | 4.0 | 10.0 | 0.00 | 0.10 | 0.10 | 84 | 1013.2 |
| 20260506235824 | 62 | 19 | 5.0 | 10.0 | 0.00 | 0.10 | 0.10 | 84 | 1014.7 |
| 20260506235524 | 61 | 354 | 4.0 | 8.0 | 0.00 | 0.10 | 0.10 | 84 | 1013.2 |
| 20260506235319 | 62 | 29 | 5.0 | 8.0 | 0.00 | 0.10 | 0.10 | 84 | 1014.6 |
| 20260506235017 | 61 | 10 | 3.0 | 10.0 | 0.00 | 0.10 | 0.10 | 84 | 1013.0 |
| 20260506234815 | 61 | 14 | 4.0 | 10.0 | 0.00 | 0.10 | 0.10 | 84 | 1014.6 |
| 20260506234507 | 61 | 33 | 5.0 | 10.0 | 0.00 | 0.10 | 0.10 | 84 | 1013.0 |
| 20260506234333 | 61 | 14 | 5.0 | 10.0 | 0.00 | 0.10 | 0.10 | 84 | 1014.6 |
| 20260506234002 | 61 | 24 | 4.0 | 10.0 | 0.00 | 0.10 | 0.10 | 84 | 1013.1 |
| 20260506233829 | 62 | 32 | 5.0 | 10.0 | 0.00 | 0.10 | 0.10 | 84 | 1014.5 |
| 20260506233556 | 61 | 33 | 3.0 | 8.0 | 0.00 | 0.10 | 0.10 | 84 | 1013.0 |
| 20260506233324 | 61 | 23 | 4.0 | 8.0 | 0.00 | 0.10 | 0.10 | 84 | 1014.6 |
| 20260506233052 | 61 | 4 | 3.0 | 6.0 | 0.00 | 0.10 | 0.10 | 84 | 1013.2 |
| 20260506232840 | 61 | 41 | 2.0 | 6.0 | 0.00 | 0.10 | 0.10 | 85 | 1014.7 |
| 20260506232517 | 61 | 14 | 3.0 | 6.0 | 0.00 | 0.10 | 0.10 | 84 | 1013.3 |
| 20260506232316 | 61 | 4 | 3.0 | 6.0 | 0.00 | 0.10 | 0.10 | 84 | 1014.9 |
| 20260506232002 | 61 | 359 | 3.0 | 8.0 | 0.00 | 0.10 | 0.10 | 84 | 1013.3 |
| 20260506231849 | 61 | 9 | 3.0 | 8.0 | 0.00 | 0.10 | 0.10 | 84 | 1014.8 |
| 20260506231534 | 61 | 19 | 3.0 | 8.0 | 0.00 | 0.10 | 0.10 | 84 | 1013.3 |
| 20260506231343 | 61 | 27 | 5.0 | 9.0 | 0.00 | 0.10 | 0.10 | 84 | 1014.6 |
| 20260506231100 | 60 | 23 | 2.0 | 9.0 | 0.00 | 0.10 | 0.10 | 85 | 1013.3 |
| 20260506230820 | 61 | 17 | 3.0 | 9.0 | 0.00 | 0.10 | 0.10 | 85 | 1014.7 |
| 20260506230556 | 60 | 348 | 5.0 | 9.0 | 0.00 | 0.10 | 0.10 | 84 | 1013.1 |
| 20260506230317 | 61 | 26 | 5.0 | 8.0 | 0.00 | 0.10 | 0.10 | 84 | 1014.7 |
| 20260506230050 | 60 | 20 | 3.0 | 9.0 | 0.00 | 0.10 | 0.10 | 84 | 1013.2 |
| 20260506225832 | 61 | 33 | 3.0 | 11.0 | 0.00 | 0.10 | 0.10 | 84 | 1014.7 |
| 20260506225538 | 60 | 62 | 3.0 | 11.0 | 0.00 | 0.10 | 0.10 | 84 | 1013.2 |
| 20260506225327 | 61 | 35 | 5.0 | 11.0 | 0.00 | 0.10 | 0.10 | 84 | 1014.7 |
| 20260506225035 | 60 | 21 | 5.0 | 11.0 | 0.00 | 0.10 | 0.10 | 85 | 1013.3 |
| 20260506224845 | 61 | 354 | 2.0 | 10.0 | 0.00 | 0.10 | 0.10 | 85 | 1014.7 |
| 20260506224559 | 60 | 354 | 3.0 | 10.0 | 0.00 | 0.10 | 0.10 | 85 | 1013.0 |
| 20260506224321 | 61 | 42 | 5.0 | 10.0 | 0.00 | 0.10 | 0.10 | 84 | 1014.4 |
| 20260506224049 | 60 | 14 | 4.0 | 11.0 | 0.00 | 0.10 | 0.10 | 85 | 1013.0 |
| 20260506223818 | 61 | 43 | 4.0 | 11.0 | 0.00 | 0.10 | 0.10 | 85 | 1014.6 |
| 20260506223542 | 60 | 16 | 6.0 | 11.0 | 0.00 | 0.10 | 0.10 | 85 | 1012.9 |
| 20260506223315 | 60 | 14 | 5.0 | 11.0 | 0.00 | 0.10 | 0.10 | 86 | 1014.3 |
| 20260506223036 | 60 | 316 | 2.0 | 11.0 | 0.00 | 0.10 | 0.10 | 86 | 1012.7 |
| 20260506222831 | 60 | 354 | 5.0 | 11.0 | 0.00 | 0.10 | 0.10 | 85 | 1014.5 |
| 20260506222530 | 59 | 359 | 7.0 | 11.0 | 0.00 | 0.10 | 0.10 | 85 | 1012.8 |
| 20260506222328 | 60 | 20 | 7.0 | 11.0 | 0.00 | 0.10 | 0.10 | 85 | 1014.2 |
| 20260506222012 | 59 | 30 | 6.0 | 11.0 | 0.00 | 0.10 | 0.10 | 85 | 1012.6 |
| 20260506221826 | 60 | 28 | 7.0 | 11.0 | 0.00 | 0.10 | 0.10 | 85 | 1014.2 |
| 20260506221506 | 59 | 345 | 4.0 | 12.0 | 0.00 | 0.10 | 0.10 | 86 | 1012.8 |
| 20260506221322 | 60 | 21 | 6.0 | 12.0 | 0.00 | 0.10 | 0.10 | 85 | 1014.5 |
| 20260506221101 | 59 | 359 | 8.0 | 12.0 | 0.00 | 0.10 | 0.10 | 85 | 1012.7 |
| 20260506220838 | 60 | 359 | 8.0 | 12.0 | 0.00 | 0.10 | 0.10 | 85 | 1014.2 |
| 20260506220527 | 59 | 21 | 6.0 | 12.0 | 0.00 | 0.10 | 0.10 | 85 | 1012.6 |
| 20260506220333 | 60 | 359 | 7.0 | 11.0 | 0.00 | 0.10 | 0.10 | 85 | 1014.5 |
| 20260506220014 | 59 | 60 | 5.0 | 10.0 | 0.00 | 0.10 | 0.10 | 86 | 1012.8 |
| 20260506215849 | 60 | 346 | 5.0 | 10.0 | 0.00 | 0.10 | 0.10 | 86 | 1014.3 |
| 20260506215552 | 59 | 341 | 5.0 | 12.0 | 0.00 | 0.10 | 0.10 | 86 | 1012.7 |
| 20260506215326 | 59 | 35 | 5.0 | 12.0 | 0.00 | 0.10 | 0.10 | 87 | 1014.4 |
| 20260506215042 | 58 | 30 | 6.0 | 12.0 | 0.00 | 0.10 | 0.10 | 86 | 1012.7 |
| 20260506214823 | 59 | 354 | 8.0 | 12.0 | 0.00 | 0.10 | 0.10 | 86 | 1014.3 |
| 20260506214539 | 58 | 350 | 6.0 | 10.0 | 0.00 | 0.10 | 0.10 | 86 | 1013.0 |
| 20260506214320 | 59 | 326 | 7.0 | 9.0 | 0.00 | 0.10 | 0.10 | 87 | 1014.7 |
| 20260506214032 | 58 | 13 | 4.0 | 9.0 | 0.00 | 0.10 | 0.10 | 86 | 1013.0 |
| 20260506213817 | 59 | 354 | 5.0 | 12.0 | 0.00 | 0.10 | 0.10 | 87 | 1014.8 |
| 20260506213531 | 58 | 15 | 5.0 | 12.0 | 0.00 | 0.10 | 0.10 | 87 | 1013.1 |
| 20260506213333 | 58 | 26 | 6.0 | 12.0 | 0.00 | 0.10 | 0.10 | 87 | 1014.4 |
| 20260506213016 | 58 | 316 | 7.0 | 10.0 | 0.00 | 0.10 | 0.10 | 87 | 1012.9 |
| 20260506212830 | 58 | 345 | 7.0 | 11.0 | 0.00 | 0.10 | 0.10 | 87 | 1014.7 |
| 20260506212507 | 58 | 359 | 4.0 | 11.0 | 0.00 | 0.10 | 0.10 | 87 | 1013.4 |
| 20260506212328 | 58 | 359 | 5.0 | 11.0 | 0.00 | 0.10 | 0.10 | 87 | 1015.2 |
| 20260506212102 | 58 | 330 | 6.0 | 11.0 | 0.00 | 0.10 | 0.10 | 87 | 1013.6 |
| 20260506211824 | 58 | 345 | 6.0 | 12.0 | 0.00 | 0.10 | 0.10 | 87 | 1015.1 |
| 20260506211552 | 57 | 346 | 6.0 | 12.0 | 0.00 | 0.10 | 0.10 | 88 | 1013.6 |
| 20260506211339 | 58 | 359 | 8.0 | 12.0 | 0.00 | 0.10 | 0.10 | 87 | 1015.3 |
| 20260506211023 | 57 | 327 | 8.0 | 12.0 | 0.00 | 0.10 | 0.10 | 87 | 1013.6 |
| 20260506210836 | 58 | 359 | 9.0 | 12.0 | 0.00 | 0.10 | 0.10 | 87 | 1015.1 |
| 20260506210547 | 57 | 10 | 4.0 | 12.0 | 0.00 | 0.10 | 0.10 | 88 | 1013.5 |
| 20260506210331 | 58 | 359 | 6.0 | 12.0 | 0.00 | 0.10 | 0.10 | 87 | 1015.3 |
| 20260506210049 | 57 | 21 | 7.0 | 12.0 | 0.00 | 0.10 | 0.10 | 87 | 1013.6 |
| 20260506205828 | 58 | 359 | 6.0 | 12.0 | 0.00 | 0.10 | 0.10 | 87 | 1015.2 |
| 20260506205533 | 57 | 335 | 6.0 | 13.0 | 0.00 | 0.10 | 0.10 | 87 | 1013.6 |
| 20260506205324 | 58 | 21 | 8.0 | 13.0 | 0.00 | 0.10 | 0.10 | 87 | 1015.2 |
| 20260506205024 | 57 | 322 | 8.0 | 13.0 | 0.00 | 0.10 | 0.10 | 87 | 1013.5 |
| 20260506204817 | 58 | 354 | 8.0 | 12.0 | 0.00 | 0.10 | 0.10 | 87 | 1015.2 |
| 20260506204548 | 57 | 338 | 6.0 | 11.0 | 0.00 | 0.10 | 0.10 | 88 | 1013.4 |
| 20260506204332 | 58 | 21 | 7.0 | 11.0 | 0.00 | 0.10 | 0.10 | 88 | 1015.2 |
| 20260506204037 | 57 | 343 | 5.0 | 11.0 | 0.00 | 0.10 | 0.10 | 88 | 1013.5 |
| 20260506203828 | 58 | 327 | 6.0 | 13.0 | 0.00 | 0.10 | 0.10 | 88 | 1015.3 |
| 20260506203527 | 57 | 359 | 7.0 | 13.0 | 0.00 | 0.10 | 0.10 | 88 | 1013.6 |
| 20260506203326 | 57 | 359 | 6.0 | 13.0 | 0.00 | 0.10 | 0.10 | 88 | 1015.4 |
| 20260506203025 | 57 | 337 | 6.0 | 12.0 | 0.00 | 0.10 | 0.10 | 88 | 1013.7 |
| 20260506202821 | 57 | 324 | 6.0 | 12.0 | 0.00 | 0.10 | 0.10 | 88 | 1015.3 |
| 20260506202505 | 57 | 359 | 7.0 | 12.0 | 0.00 | 0.10 | 0.10 | 88 | 1013.4 |
| 20260506202319 | 57 | 336 | 7.0 | 12.0 | 0.00 | 0.10 | 0.10 | 88 | 1015.1 |
| 20260506202103 | 57 | 346 | 5.0 | 13.0 | 0.00 | 0.10 | 0.10 | 88 | 1013.3 |
| 20260506201854 | 57 | 33 | 7.0 | 13.0 | 0.00 | 0.10 | 0.10 | 88 | 1015.3 |
| 20260506201542 | 56 | 354 | 8.0 | 13.0 | 0.00 | 0.10 | 0.10 | 88 | 1013.6 |
| 20260506201328 | 57 | 31 | 7.0 | 16.0 | 0.00 | 0.10 | 0.10 | 88 | 1015.4 |
| 20260506201014 | 56 | 25 | 5.0 | 16.0 | 0.00 | 0.10 | 0.10 | 88 | 1013.7 |
| 20260506200824 | 57 | 12 | 8.0 | 16.0 | 0.00 | 0.10 | 0.10 | 88 | 1015.4 |
| 20260506200505 | 56 | 354 | 6.0 | 14.0 | 0.00 | 0.10 | 0.10 | 88 | 1013.7 |
| 20260506200340 | 57 | 29 | 8.0 | 14.0 | 0.00 | 0.10 | 0.10 | 88 | 1015.4 |
| 20260506200055 | 56 | 4 | 5.0 | 14.0 | 0.00 | 0.10 | 0.10 | 88 | 1013.6 |
| 20260506195830 | 57 | 323 | 9.0 | 14.0 | 0.00 | 0.10 | 0.10 | 88 | 1015.4 |
| 20260506195545 | 57 | 354 | 9.0 | 14.0 | 0.00 | 0.10 | 0.10 | 88 | 1013.5 |
| 20260506195326 | 57 | 320 | 6.0 | 12.0 | 0.00 | 0.10 | 0.10 | 89 | 1015.5 |
| 20260506195039 | 57 | 359 | 7.0 | 12.0 | 0.00 | 0.10 | 0.10 | 89 | 1013.5 |
| 20260506194822 | 57 | 354 | 7.0 | 12.0 | 0.00 | 0.10 | 0.10 | 89 | 1015.3 |
| 20260506194529 | 56 | 337 | 5.0 | 12.0 | 0.00 | 0.10 | 0.10 | 89 | 1013.7 |
| 20260506194317 | 57 | 359 | 8.0 | 12.0 | 0.00 | 0.10 | 0.10 | 89 | 1015.5 |
| 20260506194019 | 56 | 359 | 6.0 | 12.0 | 0.01 | 0.10 | 0.10 | 89 | 1013.6 |
| 20260506193814 | 57 | 10 | 6.0 | 12.0 | 0.01 | 0.10 | 0.10 | 89 | 1015.5 |
| 20260506193506 | 56 | 324 | 9.0 | 12.0 | 0.01 | 0.10 | 0.10 | 89 | 1013.8 |
| 20260506193329 | 56 | 359 | 8.0 | 12.0 | 0.01 | 0.10 | 0.10 | 89 | 1015.6 |